Location: Newark
(43.4306°N, 0.3089°E)
Time: 19:59:59
(UTC+00:00)

Transit 2A Rocket - Pass Details

Date: 31 August 2019
Orbit: 592 x 911 km, 66.7° (Epoch: 14 September)

Event Time Altitude Azimuth Distance (km) Brightness Sun altitude
Rises 02:03:22 0° 327° (NNW) 2,976 8.3 -30.7°
Reaches altitude 10° 02:05:44 10° 326° (NW) 2,022 7.4 -30.4°
Enters shadow 02:05:57 11° 326° (NW) 1,938 7.3 -30.4°
